EZY221 EGJJ-EGTE

Flight info

Callsign EZY221
Flight time 0h 42m
Altitude 18000
Route SKERY L22 EMWIP P16 FIMCA N22 BHD N864 DAWLY
Aircraft A320/M-SDE3FGHIRWY/LB1

Departure

Time 2026-04-28 19:57
Airport Jersey Airport (EGJJ)

Arrival

Time 2026-04-28 20:40
Airport Exeter International Airport (EGTE)
Time Latitude Longitude Altitude Speed Heading
2026-04-28 19:28 49.20489 -2.19618 282 ft 0 kts 14°
2026-04-28 19:47 49.20496 -2.19616 283 ft 4 kts 11°
2026-04-28 19:47 49.20503 -2.19612 281 ft 1 kts 194°
2026-04-28 19:47 49.20507 -2.19610 280 ft 0 kts 194°
2026-04-28 19:50 49.20504 -2.19611 280 ft 2 kts 194°
2026-04-28 19:50 49.20468 -2.19627 283 ft 8 kts 201°
2026-04-28 19:51 49.20443 -2.19710 280 ft 10 kts 262°
2026-04-28 19:51 49.20435 -2.19814 280 ft 9 kts 262°
2026-04-28 19:51 49.20443 -2.19900 282 ft 8 kts 309°
2026-04-28 19:51 49.20491 -2.19922 280 ft 8 kts 342°
2026-04-28 19:52 49.20518 -2.19989 280 ft 7 kts 285°
2026-04-28 19:52 49.20531 -2.20059 280 ft 6 kts 287°
2026-04-28 19:52 49.20545 -2.20132 281 ft 8 kts 287°
2026-04-28 19:52 49.20558 -2.20196 282 ft 5 kts 287°
2026-04-28 19:53 49.20566 -2.20235 285 ft 2 kts 285°
2026-04-28 19:53 49.20569 -2.20254 283 ft 2 kts 285°
2026-04-28 19:53 49.20579 -2.20305 284 ft 6 kts 287°
2026-04-28 19:53 49.20593 -2.20373 283 ft 7 kts 287°
2026-04-28 19:54 49.20607 -2.20445 280 ft 7 kts 286°
2026-04-28 19:54 49.20616 -2.20497 280 ft 0 kts 284°
2026-04-28 19:55 49.20617 -2.20501 280 ft 3 kts 284°
2026-04-28 19:55 49.20625 -2.20594 281 ft 9 kts 272°
2026-04-28 19:56 49.20634 -2.20669 280 ft 8 kts 296°
2026-04-28 19:56 49.20674 -2.20701 281 ft 6 kts
2026-04-28 19:56 49.20707 -2.20647 280 ft 8 kts 82°
2026-04-28 19:56 49.20707 -2.20643 285 ft 0 kts 82°
2026-04-28 19:57 49.20742 -2.20224 280 ft 85 kts 82°
2026-04-28 19:57 49.20847 -2.18962 486 ft 137 kts 79°
2026-04-28 19:57 49.20937 -2.17495 1344 ft 142 kts 78°
2026-04-28 19:58 49.21082 -2.15954 1978 ft 156 kts 77°
2026-04-28 19:58 49.21253 -2.14192 2317 ft 180 kts 77°
2026-04-28 19:58 49.21671 -2.12259 2765 ft 204 kts 63°
2026-04-28 19:58 49.22586 -2.10437 3314 ft 227 kts 45°
2026-04-28 19:59 49.23985 -2.09177 4146 ft 243 kts 24°
2026-04-28 19:59 49.25715 -2.08824 4988 ft 260 kts
2026-04-28 19:59 49.27501 -2.09609 5203 ft 281 kts 334°
2026-04-28 19:59 49.28966 -2.11627 5079 ft 286 kts 316°
2026-04-28 20:00 49.30301 -2.13874 5041 ft 285 kts 317°
2026-04-28 20:00 49.31645 -2.16110 5038 ft 285 kts 317°
2026-04-28 20:00 49.32995 -2.18335 5044 ft 285 kts 318°
2026-04-28 20:00 49.34355 -2.20558 5043 ft 285 kts 318°
2026-04-28 20:01 49.35715 -2.22772 5045 ft 285 kts 318°
2026-04-28 20:01 49.37073 -2.24983 5040 ft 285 kts 318°
2026-04-28 20:01 49.38433 -2.27203 5040 ft 285 kts 318°
2026-04-28 20:01 49.39788 -2.29417 5039 ft 285 kts 318°
2026-04-28 20:02 49.41145 -2.31637 5040 ft 285 kts 318°
2026-04-28 20:02 49.42501 -2.33855 5042 ft 284 kts 318°
2026-04-28 20:02 49.43876 -2.36037 5038 ft 282 kts 323°
2026-04-28 20:02 49.45354 -2.38028 5040 ft 283 kts 324°
2026-04-28 20:03 49.46832 -2.40025 5057 ft 285 kts 323°
2026-04-28 20:03 49.48316 -2.42103 5839 ft 288 kts 322°
2026-04-28 20:03 49.49769 -2.44186 6866 ft 289 kts 321°
2026-04-28 20:03 49.51244 -2.46315 7765 ft 292 kts 321°
2026-04-28 20:04 49.52733 -2.48470 8671 ft 296 kts 321°
2026-04-28 20:04 49.54245 -2.50655 9531 ft 301 kts 321°
2026-04-28 20:04 49.55785 -2.52876 10363 ft 306 kts 320°
2026-04-28 20:04 49.57401 -2.55192 10699 ft 329 kts 320°
2026-04-28 20:05 49.59142 -2.57688 10945 ft 353 kts 320°
2026-04-28 20:05 49.60987 -2.60340 11353 ft 369 kts 320°
2026-04-28 20:05 49.62874 -2.63064 12057 ft 374 kts 320°
2026-04-28 20:05 49.64782 -2.65828 12802 ft 378 kts 319°
2026-04-28 20:06 49.66708 -2.68623 13530 ft 383 kts 320°
2026-04-28 20:06 49.68657 -2.71452 14246 ft 386 kts 320°
2026-04-28 20:06 49.70622 -2.74304 14948 ft 388 kts 320°
2026-04-28 20:06 49.72599 -2.77171 15586 ft 392 kts 320°
2026-04-28 20:07 49.74593 -2.80063 16228 ft 395 kts 320°
2026-04-28 20:07 49.75926 -2.81998 16645 ft 398 kts 320°
2026-04-28 20:07 49.78641 -2.85949 17493 ft 403 kts 320°
2026-04-28 20:07 49.80694 -2.88940 18037 ft 408 kts 320°
2026-04-28 20:08 49.82761 -2.91961 18189 ft 412 kts 320°
2026-04-28 20:08 49.84899 -2.95083 18216 ft 431 kts 320°
2026-04-28 20:08 49.87113 -2.98317 18212 ft 442 kts 319°
2026-04-28 20:08 49.89361 -3.01615 18212 ft 445 kts 319°
2026-04-28 20:09 49.91617 -3.04936 18212 ft 446 kts 319°
2026-04-28 20:09 49.93870 -3.08257 18202 ft 446 kts 320°
2026-04-28 20:09 49.96090 -3.11538 18209 ft 431 kts 320°
2026-04-28 20:09 49.98244 -3.14729 17394 ft 428 kts 319°
2026-04-28 20:10 50.00228 -3.18241 16376 ft 431 kts 308°
2026-04-28 20:10 50.01806 -3.22137 15921 ft 421 kts 303°
2026-04-28 20:10 50.03297 -3.26040 15370 ft 416 kts 305°
2026-04-28 20:10 50.05016 -3.29600 14818 ft 408 kts 316°
2026-04-28 20:11 50.07060 -3.32581 14269 ft 399 kts 326°
2026-04-28 20:11 50.09351 -3.34946 13663 ft 391 kts 335°
2026-04-28 20:11 50.11745 -3.36864 13092 ft 385 kts 337°
2026-04-28 20:11 50.14083 -3.38744 12504 ft 380 kts 336°
2026-04-28 20:12 50.16449 -3.40658 11877 ft 376 kts 336°
2026-04-28 20:12 50.18731 -3.42508 11320 ft 372 kts 336°
2026-04-28 20:12 50.20978 -3.44331 11167 ft 355 kts 336°
2026-04-28 20:12 50.22439 -3.45518 11083 ft 345 kts 337°
2026-04-28 20:13 50.25174 -3.47743 10908 ft 324 kts 337°
2026-04-28 20:13 50.27141 -3.49115 10681 ft 298 kts 347°
2026-04-28 20:13 50.29119 -3.49801 10264 ft 285 kts 359°
2026-04-28 20:13 50.31076 -3.49857 10095 ft 279 kts
2026-04-28 20:14 50.33020 -3.49727 9961 ft 279 kts
2026-04-28 20:14 50.34959 -3.49618 9822 ft 279 kts
2026-04-28 20:14 50.36900 -3.49516 9685 ft 278 kts
2026-04-28 20:14 50.38835 -3.49505 9550 ft 280 kts 359°
2026-04-28 20:15 50.40753 -3.50177 9272 ft 287 kts 344°
2026-04-28 20:15 50.42557 -3.51553 8847 ft 289 kts 337°
2026-04-28 20:15 50.44336 -3.53031 8402 ft 288 kts 337°
2026-04-28 20:15 50.46092 -3.54488 7958 ft 283 kts 337°
2026-04-28 20:16 50.47827 -3.55929 7532 ft 281 kts 337°
2026-04-28 20:16 50.48953 -3.56863 7313 ft 271 kts 337°
2026-04-28 20:16 50.51067 -3.58624 6989 ft 248 kts 338°
2026-04-28 20:16 50.52576 -3.59873 6481 ft 244 kts 338°
2026-04-28 20:17 50.54072 -3.61107 5977 ft 243 kts 338°
2026-04-28 20:17 50.55570 -3.62341 5589 ft 244 kts 338°
2026-04-28 20:17 50.57081 -3.63585 5209 ft 245 kts 338°
2026-04-28 20:17 50.58567 -3.64815 5066 ft 236 kts 338°
2026-04-28 20:18 50.59993 -3.66000 4917 ft 228 kts 337°
2026-04-28 20:18 50.60911 -3.66768 4829 ft 223 kts 337°
2026-04-28 20:18 50.62673 -3.68320 4666 ft 207 kts 336°
2026-04-28 20:18 50.63897 -3.69420 4430 ft 201 kts 337°
2026-04-28 20:19 50.65147 -3.70498 3891 ft 207 kts 343°
2026-04-28 20:19 50.66497 -3.70898 3481 ft 189 kts 10°
2026-04-28 20:19 50.67703 -3.70433 3199 ft 171 kts 32°
2026-04-28 20:19 50.68610 -3.69382 3063 ft 153 kts 51°
2026-04-28 20:20 50.69164 -3.68051 2986 ft 142 kts 66°
2026-04-28 20:20 50.69361 -3.67080 2956 ft 139 kts 75°
2026-04-28 20:20 50.69593 -3.65620 2915 ft 137 kts 74°
2026-04-28 20:20 50.69825 -3.64172 2812 ft 136 kts 73°
2026-04-28 20:21 50.70054 -3.62732 2665 ft 135 kts 73°
2026-04-28 20:21 50.70282 -3.61298 2497 ft 134 kts 73°
2026-04-28 20:21 50.70509 -3.59872 2314 ft 133 kts 72°
2026-04-28 20:21 50.70736 -3.58443 2138 ft 135 kts 72°
2026-04-28 20:22 50.70963 -3.57012 1957 ft 134 kts 72°
2026-04-28 20:22 50.71189 -3.55584 1769 ft 135 kts 71°
2026-04-28 20:22 50.71418 -3.54141 1581 ft 136 kts 72°
2026-04-28 20:22 50.71645 -3.52702 1388 ft 131 kts 72°
2026-04-28 20:23 50.71864 -3.51319 1220 ft 133 kts 71°
2026-04-28 20:23 50.72092 -3.49880 1033 ft 136 kts 73°
2026-04-28 20:23 50.72320 -3.48432 846 ft 136 kts 72°
2026-04-28 20:23 50.72552 -3.46980 651 ft 136 kts 72°
2026-04-28 20:24 50.72778 -3.45549 502 ft 137 kts 72°
2026-04-28 20:24 50.73010 -3.44062 322 ft 137 kts 72°
2026-04-28 20:24 50.73242 -3.42626 126 ft 136 kts 74°
2026-04-28 20:24 50.73449 -3.41285 101 ft 113 kts 79°
2026-04-28 20:25 50.73650 -3.39927 494 ft 133 kts 75°
2026-04-28 20:25 50.73837 -3.38483 1192 ft 135 kts 76°
2026-04-28 20:25 50.74008 -3.36963 1567 ft 151 kts 77°
2026-04-28 20:25 50.74220 -3.35209 1799 ft 173 kts 76°
2026-04-28 20:26 50.74466 -3.33214 1978 ft 197 kts 76°
2026-04-28 20:26 50.74741 -3.30966 2287 ft 218 kts 76°
2026-04-28 20:26 50.75037 -3.28567 2512 ft 225 kts 76°
2026-04-28 20:26 50.75348 -3.26138 2536 ft 225 kts 76°
2026-04-28 20:27 50.75708 -3.23750 2537 ft 222 kts 67°
2026-04-28 20:27 50.76658 -3.21852 2536 ft 225 kts 37°
2026-04-28 20:27 50.78165 -3.21081 2533 ft 235 kts
2026-04-28 20:27 50.79689 -3.21636 2529 ft 216 kts 345°
2026-04-28 20:28 50.80995 -3.22624 2536 ft 206 kts 339°
2026-04-28 20:28 50.82026 -3.24281 2541 ft 224 kts 303°
2026-04-28 20:28 50.82334 -3.26741 2541 ft 236 kts 266°
2026-04-28 20:28 50.81935 -3.29304 2533 ft 240 kts 252°
2026-04-28 20:29 50.81388 -3.31713 2523 ft 227 kts 251°
2026-04-28 20:29 50.80839 -3.34012 2485 ft 222 kts 250°
2026-04-28 20:29 50.80293 -3.36273 2387 ft 219 kts 250°
2026-04-28 20:29 50.79753 -3.38481 2327 ft 218 kts 250°
2026-04-28 20:30 50.79200 -3.40723 2340 ft 220 kts 250°
2026-04-28 20:30 50.78648 -3.42974 2336 ft 220 kts 250°
2026-04-28 20:30 50.78098 -3.45232 2339 ft 220 kts 250°
2026-04-28 20:30 50.77539 -3.47469 2337 ft 218 kts 250°
2026-04-28 20:31 50.76969 -3.49688 2338 ft 218 kts 246°
2026-04-28 20:31 50.76303 -3.51843 2338 ft 218 kts 243°
2026-04-28 20:31 50.75602 -3.53976 2339 ft 219 kts 242°
2026-04-28 20:31 50.74890 -3.56104 2341 ft 219 kts 243°
2026-04-28 20:32 50.74165 -3.58276 2354 ft 237 kts 243°
2026-04-28 20:32 50.73330 -3.60794 2334 ft 268 kts 243°
2026-04-28 20:32 50.72456 -3.63432 2333 ft 273 kts 243°
2026-04-28 20:32 50.71569 -3.66112 2336 ft 277 kts 243°
2026-04-28 20:33 50.70672 -3.68817 2337 ft 278 kts 242°
2026-04-28 20:33 50.69774 -3.71515 2333 ft 277 kts 243°
2026-04-28 20:33 50.68883 -3.74195 2351 ft 276 kts 242°
2026-04-28 20:33 50.67695 -3.76515 2492 ft 273 kts 211°
2026-04-28 20:34 50.65996 -3.77419 2518 ft 243 kts 171°
2026-04-28 20:34 50.64560 -3.76633 2533 ft 208 kts 128°
2026-04-28 20:34 50.63978 -3.74762 2535 ft 186 kts 84°
2026-04-28 20:34 50.64455 -3.72956 2485 ft 182 kts 49°
2026-04-28 20:35 50.65327 -3.71484 2412 ft 184 kts 49°
2026-04-28 20:35 50.66194 -3.70028 2331 ft 184 kts 48°
2026-04-28 20:35 50.67075 -3.68555 2336 ft 184 kts 49°
2026-04-28 20:35 50.67956 -3.67086 2337 ft 181 kts 48°
2026-04-28 20:36 50.68799 -3.65688 2332 ft 169 kts 48°
2026-04-28 20:36 50.69576 -3.64371 2334 ft 158 kts 55°
2026-04-28 20:36 50.70039 -3.62841 2371 ft 155 kts 73°
2026-04-28 20:36 50.70298 -3.61207 2354 ft 153 kts 73°
2026-04-28 20:37 50.70556 -3.59584 2226 ft 153 kts 73°
2026-04-28 20:37 50.70816 -3.57943 2067 ft 152 kts 72°
2026-04-28 20:37 50.71060 -3.56394 1884 ft 140 kts 71°
2026-04-28 20:37 50.71291 -3.54936 1708 ft 137 kts 71°
2026-04-28 20:38 50.71522 -3.53478 1506 ft 136 kts 72°
2026-04-28 20:38 50.71751 -3.52034 1330 ft 136 kts 72°
2026-04-28 20:38 50.71981 -3.50581 1135 ft 137 kts 72°
2026-04-28 20:38 50.72211 -3.49124 956 ft 137 kts 72°
2026-04-28 20:39 50.72440 -3.47675 775 ft 135 kts 71°
2026-04-28 20:39 50.72671 -3.46229 603 ft 136 kts 71°
2026-04-28 20:39 50.72902 -3.44778 395 ft 138 kts 72°
2026-04-28 20:39 50.73140 -3.43319 218 ft 137 kts 73°
2026-04-28 20:40 50.73360 -3.41879 97 ft 124 kts 78°
2026-04-28 20:40 50.73490 -3.41023 100 ft 37 kts 76°
2026-04-28 20:40 50.73516 -3.40860 101 ft 15 kts 78°
2026-04-28 20:40 50.73546 -3.40648 100 ft 22 kts 77°
2026-04-28 20:41 50.73586 -3.40393 100 ft 29 kts 76°
2026-04-28 20:41 50.73630 -3.40141 99 ft 19 kts 73°
2026-04-28 20:41 50.73618 -3.40002 101 ft 10 kts 90°
2026-04-28 20:41 50.73638 -3.40005 101 ft 4 kts 291°
2026-04-28 20:42 50.73636 -3.40055 100 ft 11 kts 259°
2026-04-28 20:42 50.73608 -3.40226 99 ft 16 kts 257°
2026-04-28 20:42 50.73586 -3.40390 100 ft 14 kts 258°
2026-04-28 20:42 50.73548 -3.40624 100 ft 29 kts 256°
2026-04-28 20:43 50.73499 -3.40943 101 ft 31 kts 256°
2026-04-28 20:43 50.73447 -3.41285 98 ft 33 kts 256°
2026-04-28 20:43 50.73388 -3.41652 97 ft 35 kts 257°
2026-04-28 20:43 50.73329 -3.42026 101 ft 36 kts 257°
2026-04-28 20:44 50.73289 -3.42238 99 ft 14 kts 229°
2026-04-28 20:44 50.73200 -3.42238 102 ft 13 kts 166°
2026-04-28 20:44 50.73117 -3.42206 99 ft 10 kts 166°
2026-04-28 20:44 50.73079 -3.42132 100 ft 8 kts 82°
2026-04-28 20:45 50.73103 -3.42044 99 ft 10 kts 64°
2026-04-28 20:45 50.73131 -3.41948 99 ft 9 kts 63°
2026-04-28 20:45 50.73137 -3.41886 100 ft 5 kts 118°
2026-04-28 20:45 50.73115 -3.41844 99 ft 5 kts 132°
2026-04-28 20:46 50.73105 -3.41825 101 ft 2 kts 131°
2026-04-28 20:46 50.73104 -3.41823 101 ft 0 kts 131°